When you browse on this site, cookies collect data to enhance your experience and personalize the content and advertising you see.
Visit our Privacy Policy to learn more. By continuing to use the site, you agree to this use of cookies and data.
  • In Portugal
  • List of Countries
  • For 7 days
  • Water Temperature
  • Weather Map
  • Weather Widgets
  • user-avatar
    Login

    Hourly Weather Lugo

    Today, 15 December, Sunday

    Time Temperature Precipitation Wind Pressure Humidity
    00:00 +10°C° 2.6 mm 4 mps 716 mmHg 93%
    01:00 +10°C° 2.6 mm 4 mps 716 mmHg 94%
    02:00 +10°C° 2.6 mm 3 mps 716 mmHg 96%
    03:00 +10°C° 3.2 mm 3 mps 716 mmHg 96%
    04:00 +9°C° 3.2 mm 2 mps 715 mmHg 97%
    05:00 +10°C° 3.2 mm 1 mps 715 mmHg 98%
    06:00 +10°C° 1.3 mm 1 mps 715 mmHg 98%
    07:00 +10°C° 1.3 mm 1 mps 715 mmHg 97%
    08:00 +9°C° 1.3 mm 1 mps 716 mmHg 97%
    09:00 +10°C° 0.3 mm 1 mps 715 mmHg 96%
    10:00 +10°C° 0.3 mm 1 mps 715 mmHg 95%
    11:00 +9°C° 0.3 mm 2 mps 715 mmHg 93%
    12:00 +8°C° 1.4 mm 2 mps 714 mmHg 94%
    13:00 +8°C° 1.4 mm 2 mps 714 mmHg 94%
    14:00 +8°C° 1.4 mm 2 mps 713 mmHg 95%
    15:00 +8°C° 0.8 mm 2 mps 713 mmHg 95%
    16:00 +7°C° 0.8 mm 2 mps 712 mmHg 96%
    17:00 +7°C° 0.8 mm 2 mps 712 mmHg 96%
    18:00 +8°C° 0.5 mm 1 mps 712 mmHg 96%
    19:00 +8°C° 0.5 mm 1 mps 712 mmHg 96%
    20:00 +8°C° 0.5 mm 1 mps 711 mmHg 96%
    21:00 +8°C° 0.5 mm 1 mps 711 mmHg 96%
    22:00 +8°C° 0.5 mm 1 mps 711 mmHg 96%
    23:00 +8°C° 0.5 mm 1 mps 711 mmHg 96%

    Tomorrow, 16 December, Monday

    Time Temperature Precipitation Wind Pressure Humidity
    00:00 +8°C° 0.4 mm 1 mps 710 mmHg 96%
    01:00 +7°C° 0.4 mm 1 mps 710 mmHg 96%
    02:00 +7°C° 0.4 mm 1 mps 710 mmHg 96%
    03:00 +7°C° 0.7 mm 1 mps 709 mmHg 97%
    04:00 +7°C° 0.7 mm 1 mps 709 mmHg 97%
    05:00 +7°C° 0.7 mm 1 mps 708 mmHg 97%
    06:00 +7°C° 1.2 mm 1 mps 708 mmHg 97%
    07:00 +7°C° 1.2 mm 1 mps 708 mmHg 97%
    08:00 +7°C° 1.2 mm 1 mps 708 mmHg 97%
    09:00 +6°C° 1.3 mm 1 mps 707 mmHg 97%
    10:00 +5°C° 1.3 mm 2 mps 707 mmHg 96%
    11:00 +5°C° 1.3 mm 2 mps 707 mmHg 96%
    12:00 +5°C° 1.3 mm 2 mps 707 mmHg 96%
    13:00 +6°C° 1.3 mm 1 mps 707 mmHg 97%
    14:00 +6°C° 1.3 mm 1 mps 706 mmHg 97%
    15:00 +6°C° 0.5 mm 1 mps 707 mmHg 97%
    16:00 +5°C° 0.5 mm 1 mps 707 mmHg 97%
    17:00 +5°C° 0.5 mm 1 mps 708 mmHg 97%
    18:00 +5°C° 0.3 mm 1 mps 708 mmHg 97%
    19:00 +5°C° 0.3 mm 1 mps 709 mmHg 97%
    20:00 +5°C° 0.3 mm 1 mps 709 mmHg 98%
    21:00 +5°C° 0.2 mm 1 mps 709 mmHg 98%
    22:00 +5°C° 0.2 mm 1 mps 710 mmHg 98%
    23:00 +4°C° 0.2 mm 0 mps 710 mmHg 98%

    Day after tomorrow, 17 December, Tuesday

    Time Temperature Precipitation Wind Pressure Humidity
    00:00 +5°C° 0.4 mm 1 mps 710 mmHg 97%
    01:00 +5°C° 0.4 mm 1 mps 710 mmHg 97%
    02:00 +5°C° 0.4 mm 1 mps 711 mmHg 97%
    03:00 +4°C° 0.1 mm 1 mps 711 mmHg 97%
    04:00 +4°C° 0.1 mm 1 mps 711 mmHg 97%
    05:00 +3°C° 0.1 mm 1 mps 712 mmHg 97%
    06:00 +2°C° 0 mm 0 mps 712 mmHg 96%
    07:00 +2°C° 0 mm 0 mps 713 mmHg 96%
    08:00 +2°C° 0 mm 0 mps 714 mmHg 95%
    09:00 +4°C° 0 mm 0 mps 714 mmHg 91%
    10:00 +5°C° 0 mm 0 mps 715 mmHg 87%
    11:00 +8°C° 0 mm 1 mps 715 mmHg 82%
    12:00 +8°C° 0 mm 1 mps 715 mmHg 81%
    13:00 +7°C° 0 mm 0 mps 715 mmHg 79%
    14:00 +7°C° 0 mm 0 mps 716 mmHg 77%
    15:00 +5°C° 0 mm 0 mps 716 mmHg 83%
    16:00 +5°C° 0 mm 1 mps 716 mmHg 89%
    17:00 +3°C° 0 mm 1 mps 716 mmHg 94%
    18:00 +3°C° 0 mm 1 mps 717 mmHg 95%
    19:00 +3°C° 0 mm 1 mps 717 mmHg 95%
    20:00 +3°C° 0 mm 1 mps 717 mmHg 95%
    21:00 +2°C° 0 mm 1 mps 717 mmHg 95%
    22:00 +2°C° 0 mm 1 mps 717 mmHg 94%
    23:00 +2°C° 0 mm 1 mps 717 mmHg 94%

    18 December, Wednesday

    Time Temperature Precipitation Wind Pressure Humidity
    00:00 +2°C° 0 mm 1 mps 716 mmHg 91%
    01:00 +2°C° 0 mm 2 mps 716 mmHg 89%
    02:00 +2°C° 0 mm 2 mps 715 mmHg 87%
    03:00 +2°C° 0 mm 2 mps 715 mmHg 85%
    04:00 +3°C° 0 mm 2 mps 714 mmHg 83%
    05:00 +2°C° 0 mm 3 mps 713 mmHg 81%
    06:00 +2°C° 1.6 mm 3 mps 713 mmHg 86%
    07:00 +3°C° 1.6 mm 3 mps 712 mmHg 90%
    08:00 +3°C° 1.6 mm 3 mps 712 mmHg 95%
    09:00 +4°C° 1.5 mm 3 mps 712 mmHg 95%
    10:00 +5°C° 1.5 mm 3 mps 711 mmHg 95%
    11:00 +7°C° 1.5 mm 2 mps 711 mmHg 96%
    12:00 +7°C° 4.7 mm 2 mps 711 mmHg 96%
    13:00 +7°C° 4.7 mm 2 mps 710 mmHg 97%
    14:00 +8°C° 4.7 mm 2 mps 710 mmHg 98%
    15:00 +8°C° 1.1 mm 2 mps 709 mmHg 97%
    16:00 +8°C° 1.1 mm 3 mps 709 mmHg 97%
    17:00 +9°C° 1.1 mm 3 mps 709 mmHg 97%
    18:00 +8°C° 0.8 mm 3 mps 709 mmHg 96%
    19:00 +8°C° 0.8 mm 3 mps 710 mmHg 95%
    20:00 +8°C° 0.8 mm 3 mps 710 mmHg 94%
    21:00 +8°C° 0.2 mm 3 mps 710 mmHg 94%
    22:00 +7°C° 0.2 mm 3 mps 710 mmHg 94%
    23:00 +6°C° 0.2 mm 4 mps 710 mmHg 94%

    19 December, Thursday

    Time Temperature Precipitation Wind Pressure Humidity
    00:00 +7°C° 0.2 mm 3 mps 710 mmHg 94%
    01:00 +5°C° 0.2 mm 3 mps 710 mmHg 95%
    02:00 +6°C° 0.2 mm 2 mps 710 mmHg 95%
    03:00 +6°C° 0.2 mm 2 mps 710 mmHg 96%
    04:00 +6°C° 0.2 mm 2 mps 710 mmHg 96%
    05:00 +6°C° 0.2 mm 2 mps 710 mmHg 96%
    06:00 +6°C° 0.2 mm 2 mps 710 mmHg 96%
    07:00 +5°C° 0.2 mm 3 mps 711 mmHg 95%
    08:00 +5°C° 0.2 mm 3 mps 711 mmHg 95%
    09:00 +7°C° 0.4 mm 3 mps 712 mmHg 93%
    10:00 +6°C° 0.4 mm 4 mps 712 mmHg 91%
    11:00 +7°C° 0.4 mm 4 mps 712 mmHg 89%
    12:00 +7°C° 0.3 mm 4 mps 711 mmHg 89%
    13:00 +8°C° 0.3 mm 3 mps 711 mmHg 90%
    14:00 +8°C° 0.3 mm 3 mps 710 mmHg 90%
    15:00 +7°C° 0.5 mm 3 mps 708 mmHg 92%
    16:00 +7°C° 0.5 mm 3 mps 707 mmHg 93%
    17:00 +5°C° 0.5 mm 3 mps 705 mmHg 94%
    18:00 +5°C° 3.8 mm 3 mps 703 mmHg 95%
    19:00 +4°C° 3.8 mm 3 mps 702 mmHg 96%
    20:00 +4°C° 3.8 mm 3 mps 700 mmHg 96%
    21:00 +4°C° 1.2 mm 3 mps 701 mmHg 97%
    22:00 +5°C° 1.2 mm 2 mps 701 mmHg 97%
    23:00 +5°C° 1.2 mm 2 mps 702 mmHg 98%

    20 December, Friday

    Time Temperature Precipitation Wind Pressure Humidity
    00:00 +5°C° 0 mm 2 mps 702 mmHg 98%
    01:00 +6°C° 0 mm 1 mps 703 mmHg 98%
    02:00 +6°C° 0 mm 1 mps 703 mmHg 98%
    03:00 +7°C° 1.4 mm 1 mps 704 mmHg 98%
    04:00 +7°C° 1.4 mm 1 mps 705 mmHg 98%
    05:00 +7°C° 1.4 mm 1 mps 706 mmHg 98%
    06:00 +6°C° 0.3 mm 2 mps 707 mmHg 97%
    07:00 +7°C° 0.3 mm 3 mps 708 mmHg 96%
    08:00 +6°C° 0.3 mm 4 mps 709 mmHg 95%
    09:00 +6°C° 0.3 mm 4 mps 710 mmHg 94%
    10:00 +6°C° 0.3 mm 4 mps 711 mmHg 93%
    11:00 +7°C° 0.3 mm 4 mps 712 mmHg 92%
    12:00 +7°C° 0.2 mm 4 mps 712 mmHg 92%
    13:00 +8°C° 0.2 mm 3 mps 713 mmHg 91%
    14:00 +8°C° 0.2 mm 3 mps 713 mmHg 90%
    15:00 +7°C° 0.5 mm 3 mps 713 mmHg 92%
    16:00 +5°C° 0.5 mm 3 mps 713 mmHg 93%
    17:00 +5°C° 0.5 mm 3 mps 713 mmHg 95%
    18:00 +5°C° 1.1 mm 3 mps 713 mmHg 95%
    19:00 +5°C° 1.1 mm 3 mps 712 mmHg 96%
    20:00 +5°C° 1.1 mm 3 mps 712 mmHg 96%
    21:00 +7°C° 1.9 mm 3 mps 711 mmHg 97%
    22:00 +8°C° 1.9 mm 3 mps 711 mmHg 97%
    23:00 +9°C° 1.9 mm 3 mps 711 mmHg 98%
    Show more